Bad Axe, MI

2:37 AM EST on November 17, 2019 (GMT -0500)
Huron County Memorial

Weather History for KBAX - September, 2019

Change the Weather History Date:

Sunday, September 15, 2019

  Actual Average (WUND) Record (WUND)
Temperature  
Mean Temperature 62 °F -  
Max Temperature 72 °F - - (-1)
Min Temperature 51 °F - - (-1)
Degree Days  
Heating Degree Days 4    
Growing Degree Days 12 (Base 50)    
Moisture  
Dew Point 57 °F    
Average Humidity 87    
Maximum Humidity 97    
Minimum Humidity 67    
Precipitation  
Precipitation 0.00 in - - ()
Sea Level Pressure  
Sea Level Pressure 30.11 in    
Wind  
Wind Speed 3 mph ()    
Max Wind Speed 9 mph    
Max Gust Speed -    
Visibility 10.0 miles    
Events Rain    
Averages and records for this station are not official NWS values.
T = Trace of Precipitation, MM = Missing Value Source: Averaged Metar Reports

Daily Weather History Graph

Daily Weather History Graph

Search for Another Location

Airport or City:

Astronomy

Sep. 15, 2019 Rise Set
Actual Time 7:10 AM EDT 7:42 PM EDT
Civil Twilight 6:42 AM EDT 8:11 PM EDT
Nautical Twilight 6:07 AM EDT 8:45 PM EDT
Astronomical Twilight 5:32 AM EDT 9:20 PM EDT
Moon 8:48 PM EDT (9/15) 8:20 AM EDT (9/15)
Length of Visible Light 13h 29m
Length of Day
12h 31m
Full, 98% of the Moon is Illuminated
Sep 15
Full
Sep 21
Last Quarter
Sep 28
New
Oct 5
First Quarter
Oct 13
Full

Hourly Weather History & Observations

Time (EDT) Temp. Dew Point Humidity Pressure Visibility Wind Dir Wind Speed Gust Speed Precip Events Conditions
12:16 AM 56.3 °F 52.3 °F 87% 30.16 in 10.0 mi SW 3.5 mph - N/A   Clear
12:35 AM 54.7 °F 52.0 °F 91% 30.16 in 10.0 mi SSW 3.5 mph - N/A   Clear
12:36 AM 54.7 °F 52.0 °F 91% 30.16 in 10.0 mi SSW 3.5 mph - N/A   Clear
12:55 AM 55.4 °F 52.2 °F 89% 30.16 in 10.0 mi SSW 3.5 mph - N/A   Clear
12:56 AM 55.2 °F 52.0 °F 89% 30.16 in 10.0 mi SSW 3.5 mph - N/A   Clear
1:19 AM 54.9 °F 52.3 °F 91% 30.17 in 10.0 mi Calm Calm - N/A   Clear
1:37 AM 52.9 °F 51.1 °F 94% 30.17 in 10.0 mi Calm Calm - N/A   Clear
1:55 AM 52.5 °F 50.9 °F 94% 30.16 in 10.0 mi SSW 8.1 mph - N/A   Clear
1:56 AM 52.3 °F 50.7 °F 94% 30.16 in 10.0 mi SSW 8.1 mph - N/A   Clear
2:15 AM 53.2 °F 51.6 °F 94% 30.16 in 10.0 mi South 6.9 mph - N/A   Clear
2:16 AM 53.4 °F 51.8 °F 94% 30.16 in 10.0 mi South 6.9 mph - N/A   Clear
2:35 AM 53.4 °F 51.8 °F 94% 30.17 in 10.0 mi Calm Calm - N/A   Clear
2:40 AM 53.8 °F 52.3 °F 95% 30.17 in 10.0 mi SSE 3.5 mph - N/A   Clear
2:58 AM 53.4 °F 51.8 °F 94% 30.17 in 10.0 mi Calm Calm - N/A   Scattered Clouds
3:16 AM 53.8 °F 52.7 °F 96% 30.16 in 10.0 mi Calm Calm - N/A   Mostly Cloudy
3:35 AM 53.1 °F 51.8 °F 95% 30.16 in 10.0 mi East 4.6 mph - N/A   Scattered Clouds
3:36 AM 53.1 °F 51.6 °F 95% 30.16 in 10.0 mi East 3.5 mph - N/A   Scattered Clouds
3:55 AM 52.9 °F 51.8 °F 96% 30.15 in 10.0 mi East 5.8 mph - N/A   Scattered Clouds
3:56 AM 52.9 °F 51.8 °F 96% 30.15 in 10.0 mi East 6.9 mph - N/A   Clear
4:19 AM 52.9 °F 51.8 °F 96% 30.14 in 10.0 mi ESE 5.8 mph - N/A   Clear
4:37 AM 52.5 °F 51.4 °F 96% 30.14 in 10.0 mi Calm Calm - N/A   Clear
4:55 AM 51.8 °F 50.7 °F 96% 30.14 in 10.0 mi South 4.6 mph - N/A   Mostly Cloudy
5:15 AM 53.1 °F 52.0 °F 96% 30.15 in 10.0 mi Calm Calm - N/A   Mostly Cloudy
5:16 AM 53.2 °F 52.2 °F 96% 30.14 in 10.0 mi SSE 3.5 mph - N/A   Mostly Cloudy
5:35 AM 52.7 °F 51.6 °F 96% 30.14 in 10.0 mi SE 4.6 mph - N/A   Scattered Clouds
5:40 AM 53.1 °F 52.0 °F 96% 30.14 in 10.0 mi ESE 4.6 mph - N/A   Scattered Clouds
5:58 AM 53.8 °F 52.9 °F 97% 30.14 in 10.0 mi Calm Calm - N/A   Scattered Clouds
6:16 AM 54.3 °F 53.4 °F 97% 30.13 in 10.0 mi SSE 4.6 mph - N/A   Mostly Cloudy
6:35 AM 54.3 °F 53.2 °F 96% 30.13 in 10.0 mi NE 3.5 mph - N/A   Mostly Cloudy
6:55 AM 55.4 °F 54.3 °F 96% 30.11 in 10.0 mi East 5.8 mph - N/A   Mostly Cloudy
6:56 AM 55.6 °F 54.5 °F 96% 30.11 in 10.0 mi East 5.8 mph - N/A   Mostly Cloudy
7:19 AM 56.8 °F 55.0 °F 94% 30.13 in 10.0 mi SE 4.6 mph - N/A   Overcast
7:37 AM 57.4 °F 55.0 °F 92% 30.13 in 10.0 mi East 9.2 mph - N/A   Overcast
7:55 AM 57.2 °F 55.4 °F 94% 30.15 in 10.0 mi Calm Calm - N/A   Overcast
8:16 AM 58.6 °F 54.7 °F 87% 30.18 in 7.0 mi NE 9.2 mph - N/A Rain Rain
8:35 AM 57.9 °F 55.0 °F 90% 30.14 in 10.0 mi East 6.9 mph - N/A Rain Light Rain
8:40 AM 57.7 °F 55.0 °F 91% 30.15 in 10.0 mi East 5.8 mph - N/A   Mostly Cloudy
8:58 AM 58.3 °F 55.4 °F 90% 30.15 in 10.0 mi East 5.8 mph - N/A   Scattered Clouds
9:16 AM 59.0 °F 56.5 °F 91% 30.14 in 10.0 mi Calm Calm - N/A   Mostly Cloudy
9:35 AM 59.2 °F 56.5 °F 91% 30.14 in 10.0 mi SE 3.5 mph - N/A   Mostly Cloudy
9:55 AM 60.3 °F 56.7 °F 88% 30.14 in 10.0 mi SE 4.6 mph - N/A   Overcast
9:56 AM 60.3 °F 56.8 °F 88% 30.14 in 10.0 mi ESE 6.9 mph - N/A   Overcast
10:19 AM 61.2 °F 57.4 °F 87% 30.14 in 10.0 mi ESE 9.2 mph - N/A   Overcast
10:37 AM 61.2 °F 57.2 °F 87% 30.14 in 10.0 mi SSE 4.6 mph - N/A   Overcast
10:55 AM 61.5 °F 57.6 °F 87% 30.14 in 10.0 mi SSE 5.8 mph - N/A   Overcast
11:15 AM 62.4 °F 58.3 °F 86% 30.13 in 10.0 mi SSE 4.6 mph - N/A   Overcast
11:16 AM 62.6 °F 58.3 °F 86% 30.14 in 10.0 mi South 4.6 mph - N/A   Overcast
11:35 AM 63.1 °F 58.1 °F 84% 30.13 in 10.0 mi SSE 4.6 mph - N/A   Overcast
11:40 AM 63.1 °F 58.3 °F 84% 30.13 in 10.0 mi Calm Calm - N/A   Overcast
11:58 AM 63.5 °F 58.3 °F 83% 30.12 in 10.0 mi Calm Calm - N/A   Overcast
12:16 PM 64.6 °F 59.0 °F 82% 30.12 in 10.0 mi Calm Calm - N/A   Overcast
12:35 PM 65.7 °F 59.5 °F 81% 30.12 in 10.0 mi Calm Calm - N/A   Overcast
12:55 PM 67.3 °F 60.3 °F 78% 30.11 in 10.0 mi Calm Calm - N/A   Overcast
12:56 PM 67.5 °F 60.4 °F 78% 30.11 in 10.0 mi Calm Calm - N/A   Overcast
1:19 PM 70.0 °F 60.3 °F 71% 30.10 in 10.0 mi West 4.6 mph - N/A   Overcast
1:37 PM 71.8 °F 61.0 °F 69% 30.09 in 10.0 mi West 5.8 mph - N/A   Mostly Cloudy
1:55 PM 70.9 °F 60.3 °F 69% 30.10 in 10.0 mi West 5.8 mph - N/A   Overcast
2:15 PM 72.1 °F 60.8 °F 67% 30.09 in 10.0 mi West 5.8 mph - N/A   Overcast
2:35 PM 71.1 °F 60.6 °F 69% 30.09 in 10.0 mi WSW 5.8 mph - N/A   Overcast
2:39 PM 71.2 °F 60.4 °F 69% 30.08 in 10.0 mi WSW 4.6 mph - N/A   Overcast
2:58 PM 71.8 °F 61.0 °F 69% 30.08 in 10.0 mi North 5.8 mph - N/A   Overcast
3:16 PM 71.2 °F 60.1 °F 68% 30.08 in 10.0 mi North 5.8 mph - N/A   Overcast
3:35 PM 71.1 °F 61.2 °F 71% 30.07 in 10.0 mi NNW 4.6 mph - N/A   Overcast
3:55 PM 71.2 °F 60.4 °F 69% 30.06 in 10.0 mi North 3.5 mph - N/A   Overcast
4:19 PM 71.2 °F 60.8 °F 69% 30.06 in 10.0 mi North 3.5 mph - N/A   Overcast
4:37 PM 70.7 °F 60.3 °F 69% 30.06 in 10.0 mi Calm Calm - N/A   Overcast
4:55 PM 71.1 °F 60.6 °F 69% 30.06 in 10.0 mi East 5.8 mph - N/A   Overcast
5:15 PM 69.8 °F 62.8 °F 78% 30.05 in 10.0 mi ENE 4.6 mph - N/A   Mostly Cloudy
5:35 PM 70.2 °F 62.6 °F 77% 30.05 in 10.0 mi SE 4.6 mph - N/A   Overcast
5:40 PM 69.4 °F 62.4 °F 78% 30.05 in 10.0 mi SE 3.5 mph - N/A   Overcast
5:58 PM 68.9 °F 62.6 °F 80% 30.05 in 10.0 mi SE 3.5 mph - N/A   Overcast
6:16 PM 67.6 °F 61.9 °F 82% 30.05 in 10.0 mi ENE 5.8 mph - N/A   Overcast
6:35 PM 67.1 °F 62.1 °F 84% 30.05 in 10.0 mi East 4.6 mph - N/A   Mostly Cloudy
6:55 PM 67.1 °F 62.1 °F 84% 30.05 in 10.0 mi ENE 4.6 mph - N/A   Mostly Cloudy
7:19 PM 66.2 °F 61.0 °F 83% 30.05 in 10.0 mi NE 4.6 mph - N/A   Scattered Clouds
7:37 PM 65.5 °F 61.7 °F 88% 30.05 in 10.0 mi NE 4.6 mph - N/A   Mostly Cloudy
7:56 PM 64.8 °F 61.5 °F 89% 30.06 in 10.0 mi ENE 4.6 mph - N/A   Overcast
8:15 PM 64.4 °F 61.2 °F 89% 30.06 in 10.0 mi NE 3.5 mph - N/A   Overcast
8:35 PM 63.9 °F 61.0 °F 90% 30.06 in 10.0 mi Calm Calm - N/A   Overcast
8:58 PM 63.7 °F 60.8 °F 90% 30.07 in 10.0 mi East 4.6 mph - N/A   Overcast
9:16 PM 63.7 °F 60.8 °F 90% 30.07 in 10.0 mi Calm Calm - N/A   Overcast
9:35 PM 63.5 °F 60.8 °F 91% 30.07 in 10.0 mi Calm Calm - N/A   Overcast
9:55 PM 63.5 °F 61.0 °F 91% 30.07 in 10.0 mi Calm Calm - N/A   Overcast
10:19 PM 63.5 °F 61.0 °F 91% 30.06 in 10.0 mi Calm Calm - N/A   Overcast
10:37 PM 63.7 °F 61.0 °F 91% 30.07 in 10.0 mi Calm Calm - N/A   Overcast
10:55 PM 63.5 °F 61.0 °F 91% 30.07 in 10.0 mi Calm Calm - N/A   Overcast
10:56 PM 63.5 °F 61.0 °F 91% 30.07 in 10.0 mi Calm Calm - N/A   Overcast
11:15 PM 63.5 °F 61.0 °F 91% 30.07 in 10.0 mi Calm Calm - N/A   Overcast
11:35 PM 63.1 °F 61.0 °F 93% 30.07 in 10.0 mi Calm Calm - N/A   Overcast
11:58 PM 62.8 °F 60.8 °F 93% 30.06 in 10.0 mi Calm Calm - N/A   Overcast